,,Stat6,,Stat2,,Stat8,,Stat9,,Stat10,,Wind1,,Wind1,
time,status,PA1M_AVG,status,PR1M_SUM,status,RH1M_AVG,status,SR1M_AVG,status,TA1M_AVG,status,W1dAve1m,status,W1sAve1m,
2007-11-30, 00:00:00,VALID,918.843,VALID,0,VALID,100,VALID,-0.0169808,VALID,18.9295,VALID,158,VALID,0,
2007-11-30, 00:01:00,VALID,918.843,VALID,0,VALID,100,VALID,-0.0339617,VALID,18.9262,VALID,142,VALID,0,
2007-11-30, 00:02:00,VALID,918.843,VALID,0,VALID,100,VALID,-0.0169808,VALID,18.9262,VALID,142,VALID,0,
2007-11-30, 00:03:00,VALID,918.841,VALID,0,VALID,100,VALID,-0.0679233,VALID,18.933,VALID,142,VALID,0,
2007-11-30, 00:04:00,VALID,918.846,VALID,0,VALID,100,VALID,-0.0509425,VALID,18.9362,VALID,142,VALID,0,
2007-11-30, 00:05:00,VALID,918.847,VALID,0,VALID,100,VALID,-0.0339617,VALID,18.9626,VALID,142,VALID,0,
2007-11-30, 00:06:00,VALID,918.829,VALID,0,VALID,100,VALID,-0.0679233,VALID,18.9587,VALID,134,VALID,0,
2007-11-30, 00:07:00,VALID,918.816,VALID,0,VALID,100,VALID,-0.0509425,VALID,18.9649,VALID,57,VALID,0,
2007-11-30, 00:08:00,VALID,918.8,VALID,0,VALID,100,VALID,-0.0849042,VALID,18.9424,VALID,56,VALID,0.491806,
2007-11-30, 00:09:00,VALID,918.793,VALID,0,VALID,100,VALID,-0.0509425,VALID,18.933,VALID,55,VALID,0.659157,
2007-11-30, 00:10:00,VALID,918.769,VALID,0,VALID,100,VALID,-0.0679233,VALID,18.91,VALID,59,VALID,0.454728,
2007-11-30, 00:11:00,VALID,918.759,VALID,0,VALID,100,VALID,-0.101885,VALID,18.9237,VALID,75,VALID,0.0440341,
2007-11-30, 00:12:00,VALID,918.758,VALID,0,VALID,100,VALID,-0.0509425,VALID,18.9232,VALID,95,VALID,0.557617,
2007-11-30, 00:13:00,VALID,918.761,VALID,0,VALID,100,VALID,-0.0509425,VALID,18.913,VALID,89,VALID,0.837695,
2007-11-30, 00:14:00,VALID,918.762,VALID,0,VALID,100,VALID,-0.0509425,VALID,18.91,VALID,84,VALID,0.642578,
2007-11-30, 00:15:00,VALID,918.759,VALID,0,VALID,100,VALID,-0.0679233,VALID,18.9195,VALID,80,VALID,0.35423,
2007-11-30, 00:16:00,VALID,918.76,VALID,0,VALID,100,VALID,-0.0849042,VALID,18.9267,VALID,80,VALID,0,
2007-11-30, 00:17:00,VALID,918.759,VALID,0,VALID,100,VALID,-0.0679233,VALID,18.9392,VALID,80,VALID,0,
2007-11-30, 00:18:00,VALID,918.744,VALID,0,VALID,100,VALID,-0.0849042,VALID,18.9457,VALID,80,VALID,0,
2007-11-30, 00:19:00,VALID,918.737,VALID,0,VALID,100,VALID,-0.0509425,VALID,18.9621,VALID,80,VALID,0,
2007-11-30, 00:20:00,VALID,918.73,VALID,0,VALID,100,VALID,-0.0509425,VALID,18.9756,VALID,80,VALID,0,
2007-11-30, 00:21:00,VALID,918.727,VALID,0,VALID,100,VALID,-0.0679233,VALID,18.9881,VALID,80,VALID,0,
2007-11-30, 00:22:00,VALID,918.708,VALID,0,VALID,100,VALID,-0.101885,VALID,18.9881,VALID,80,VALID,0,
2007-11-30, 00:23:00,VALID,918.7,VALID,0,VALID,100,VALID,-0.0849042,VALID,18.9951,VALID,80,VALID,0,
2007-11-30, 00:24:00,VALID,918.683,VALID,0,VALID,100,VALID,-0.0679233,VALID,18.9916,VALID,80,VALID,0,
2007-11-30, 00:25:00,VALID,918.675,VALID,0,VALID,100,VALID,-0.0679233,VALID,19.0083,VALID,80,VALID,0,
2007-11-30, 00:26:00,VALID,918.679,VALID,0,VALID,100,VALID,-0.0679233,VALID,19.0175,VALID,80,VALID,0,
2007-11-30, 00:27:00,VALID,918.655,VALID,0,VALID,100,VALID,-0.0509425,VALID,18.9909,VALID,79,VALID,0.560023,
2007-11-30, 00:28:00,VALID,918.645,VALID,0,VALID,100,VALID,-0.0679233,VALID,18.9821,VALID,79,VALID,0.527083,
2007-11-30, 00:29:00,VALID,918.633,VALID,0,VALID,100,VALID,-0.0679233,VALID,18.9719,VALID,80,VALID,0.0827415,
2007-11-30, 00:30:00,VALID,918.61,VALID,0,VALID,100,VALID,-0.0679233,VALID,18.9654,VALID,101,VALID,0.000372024,
2007-11-30, 00:31:00,VALID,918.599,VALID,0,VALID,100,VALID,-0.0679233,VALID,18.9652,VALID,133,VALID,0.798874,
2007-11-30, 00:32:00,VALID,918.584,VALID,0,VALID,100,VALID,-0.0679233,VALID,18.9684,VALID,135,VALID,0.920277,
2007-11-30, 00:33:00,VALID,918.577,VALID,0,VALID,100,VALID,-0.0679233,VALID,18.9811,VALID,135,VALID,0.91424,
2007-11-30, 00:34:00,VALID,918.574,VALID,0,VALID,100,VALID,-0.0339617,VALID,18.9909,VALID,134,VALID,0.860176,
2007-11-30, 00:35:00,VALID,918.563,VALID,0,VALID,100,VALID,-0.0509425,VALID,18.9978,VALID,134,VALID,0.706424,
2007-11-30, 00:36:00,VALID,918.557,VALID,0,VALID,100,VALID,-0.0679233,VALID,19.0136,VALID,135,VALID,0.677257,
2007-11-30, 00:37:00,VALID,918.549,VALID,0,VALID,100,VALID,-0.101885,VALID,19.037,VALID,125,VALID,0.697798,
2007-11-30, 00:38:00,VALID,918.538,VALID,0,VALID,100,VALID,-0.0679233,VALID,19.0328,VALID,129,VALID,0.777435,
2007-11-30, 00:39:00,VALID,918.528,VALID,0,VALID,100,VALID,-0.0679233,VALID,19.0557,VALID,141,VALID,0.781055,
2007-11-30, 00:40:00,VALID,918.525,VALID,0,VALID,100,VALID,-0.101885,VALID,19.0724,VALID,142,VALID,0.85556,
2007-11-30, 00:41:00,VALID,918.512,VALID,0,VALID,100,VALID,-0.0849042,VALID,19.0889,VALID,153,VALID,0.110491,
2007-11-30, 00:42:00,VALID,918.481,VALID,0,VALID,100,VALID,0.0339617,VALID,19.0999,VALID,146,VALID,0.759549,
2007-11-30, 00:43:00,VALID,918.475,VALID,0,VALID,100,VALID,0.0169808,VALID,19.1234,VALID,137,VALID,0.364281,
2007-11-30, 00:44:00,VALID,918.452,VALID,0,VALID,100,VALID,0.0169808,VALID,19.1363,VALID,151,VALID,0.506904,
2007-11-30, 00:45:00,VALID,918.433,VALID,0,VALID,100,VALID,0,VALID,19.1229,VALID,150,VALID,0.47904,
2007-11-30, 00:46:00,VALID,918.419,VALID,0,VALID,100,VALID,0.0169808,VALID,19.1162,VALID,151,VALID,0.661204,
2007-11-30, 00:47:00,VALID,918.393,VALID,0,VALID,100,VALID,0,VALID,19.1261,VALID,152,VALID,0.334961,
2007-11-30, 00:48:00,VALID,918.381,VALID,0,VALID,100,VALID,0.0339617,VALID,19.1064,VALID,156,VALID,0.321181,
2007-11-30, 00:49:00,VALID,918.371,VALID,0,VALID,100,VALID,0.0339617,VALID,19.0969,VALID,154,VALID,0.075218,
2007-11-30, 00:50:00,VALID,918.372,VALID,0,VALID,100,VALID,0.0509425,VALID,19.0967,VALID,154,VALID,0,
2007-11-30, 00:51:00,VALID,918.367,VALID,0.2,VALID,100,VALID,0,VALID,19.0939,VALID,154,VALID,0,
2007-11-30, 00:52:00,VALID,918.369,VALID,0,VALID,100,VALID,0.0169808,VALID,19.0942,VALID,154,VALID,0,
2007-11-30, 00:53:00,VALID,918.371,VALID,0,VALID,100,VALID,0.0169808,VALID,19.1037,VALID,154,VALID,0,
2007-11-30, 00:54:00,VALID,918.355,VALID,0,VALID,100,VALID,0.0169808,VALID,19.0967,VALID,154,VALID,0,
2007-11-30, 00:55:00,VALID,918.347,VALID,0,VALID,100,VALID,0.0169808,VALID,19.1034,VALID,150,VALID,0,
2007-11-30, 00:56:00,VALID,918.331,VALID,0,VALID,100,VALID,0.0509425,VALID,19.0997,VALID,149,VALID,0.0388765,
2007-11-30, 00:57:00,VALID,918.314,VALID,0,VALID,100,VALID,-0.0679233,VALID,19.0814,VALID,149,VALID,0,
2007-11-30, 00:58:00,VALID,918.298,VALID,0,VALID,100,VALID,-0.0169808,VALID,19.0917,VALID,139,VALID,0.309832,
2007-11-30, 00:59:00,VALID,918.282,VALID,0,VALID,100,VALID,-0.0679233,VALID,19.1014,VALID,113,VALID,0.460428,
2007-11-30, 01:00:00,VALID,918.275,VALID,0,VALID,100,VALID,-0.0339617,VALID,19.1111,VALID,114,VALID,0.380632,
2007-11-30, 01:01:00,VALID,918.262,VALID,0,VALID,100,VALID,-0.0849042,VALID,19.1084,VALID,119,VALID,0.450521,
2007-11-30, 01:02:00,VALID,918.262,VALID,0,VALID,100,VALID,-0.0679233,VALID,19.1174,VALID,131,VALID,0.287109,
2007-11-30, 01:03:00,VALID,918.267,VALID,0,VALID,100,VALID,-0.0849042,VALID,19.1278,VALID,131,VALID,0.114211,
2007-11-30, 01:04:00,VALID,918.26,VALID,0,VALID,100,VALID,-0.0509425,VALID,19.1243,VALID,127,VALID,0.210751,
2007-11-30, 01:05:00,VALID,918.263,VALID,0,VALID,100,VALID,-0.0679233,VALID,19.1269,VALID,106,VALID,0.186547,
2007-11-30, 01:06:00,VALID,918.255,VALID,0,VALID,100,VALID,-0.0849042,VALID,19.1376,VALID,106,VALID,0,
2007-11-30, 01:07:00,VALID,918.25,VALID,0,VALID,100,VALID,-0.0339617,VALID,19.147,VALID,110,VALID,0.102493,
2007-11-30, 01:08:00,VALID,918.24,VALID,0,VALID,100,VALID,-0.0679233,VALID,19.1431,VALID,133,VALID,0.569311,
2007-11-30, 01:09:00,VALID,918.225,VALID,0,VALID,100,VALID,-0.0849042,VALID,19.1528,VALID,148,VALID,0.532848,
2007-11-30, 01:10:00,VALID,918.21,VALID,0,VALID,100,VALID,-0.0339617,VALID,19.1598,VALID,145,VALID,0.294271,
2007-11-30, 01:11:00,VALID,918.191,VALID,0,VALID,100,VALID,-0.101885,VALID,19.17,VALID,134,VALID,0.640803,
2007-11-30, 01:12:00,VALID,918.178,VALID,0,VALID,100,VALID,0.0169808,VALID,19.1748,VALID,132,VALID,0.552083,
2007-11-30, 01:13:00,VALID,918.171,VALID,0,VALID,100,VALID,0.0169808,VALID,19.1651,VALID,137,VALID,0.585243,
2007-11-30, 01:14:00,VALID,918.17,VALID,0,VALID,100,VALID,0.0679233,VALID,19.1616,VALID,135,VALID,0.538885,
2007-11-30, 01:15:00,VALID,918.161,VALID,0,VALID,100,VALID,0.0509425,VALID,19.1548,VALID,130,VALID,0.510719,
2007-11-30, 01:16:00,VALID,918.146,VALID,0,VALID,100,VALID,0.0679233,VALID,19.1613,VALID,128,VALID,0.466332,
2007-11-30, 01:17:00,VALID,918.141,VALID,0,VALID,100,VALID,0.0169808,VALID,19.1775,VALID,128,VALID,0.123666,
2007-11-30, 01:18:00,VALID,918.137,VALID,0,VALID,100,VALID,0.0339617,VALID,19.1815,VALID,128,VALID,0.0261628,
2007-11-30, 01:19:00,VALID,918.13,VALID,0,VALID,100,VALID,0.0169808,VALID,19.1778,VALID,128,VALID,0,
2007-11-30, 01:20:00,VALID,918.119,VALID,0,VALID,100,VALID,0.0169808,VALID,19.1848,VALID,141,VALID,0,
2007-11-30, 01:21:00,VALID,918.107,VALID,0,VALID,100,VALID,0.0339617,VALID,19.1873,VALID,147,VALID,0,
2007-11-30, 01:22:00,VALID,918.108,VALID,0,VALID,100,VALID,0.0169808,VALID,19.2042,VALID,147,VALID,0,
2007-11-30, 01:23:00,VALID,918.099,VALID,0,VALID,100,VALID,0.101885,VALID,19.194,VALID,147,VALID,0,
2007-11-30, 01:24:00,VALID,918.093,VALID,0,VALID,100,VALID,0.101885,VALID,19.1903,VALID,147,VALID,0,
2007-11-30, 01:25:00,VALID,918.076,VALID,0,VALID,100,VALID,0.0849042,VALID,19.1708,VALID,147,VALID,0,
2007-11-30, 01:26:00,VALID,918.053,VALID,0,VALID,100,VALID,0.0339617,VALID,19.1546,VALID,147,VALID,0,
2007-11-30, 01:27:00,VALID,918.033,VALID,0,VALID,100,VALID,-0.0169808,VALID,19.1563,VALID,147,VALID,0,
2007-11-30, 01:28:00,VALID,918.013,VALID,0,VALID,100,VALID,-0.0679233,VALID,19.1625,VALID,147,VALID,0,
2007-11-30, 01:29:00,VALID,918.009,VALID,0,VALID,100,VALID,-0.0169808,VALID,19.1561,VALID,147,VALID,0,
2007-11-30, 01:30:00,VALID,917.996,VALID,0,VALID,100,VALID,-0.0339617,VALID,19.1528,VALID,151,VALID,0.00677083,
2007-11-30, 01:31:00,VALID,917.99,VALID,0,VALID,100,VALID,-0.0679233,VALID,19.1498,VALID,171,VALID,0.295785,
2007-11-30, 01:32:00,VALID,917.993,VALID,0,VALID,100,VALID,-0.0169808,VALID,19.1336,VALID,170,VALID,0.0106534,
2007-11-30, 01:33:00,VALID,917.993,VALID,0,VALID,100,VALID,-0.0339617,VALID,19.1239,VALID,171,VALID,0.0323153,
2007-11-30, 01:34:00,VALID,918.003,VALID,0,VALID,100,VALID,-0.101885,VALID,19.1141,VALID,171,VALID,0,
2007-11-30, 01:35:00,VALID,918.019,VALID,0,VALID,100,VALID,-0.0849042,VALID,19.1174,VALID,171,VALID,0,
2007-11-30, 01:36:00,VALID,918.04,VALID,0,VALID,100,VALID,-0.0679233,VALID,19.1176,VALID,171,VALID,0,
2007-11-30, 01:37:00,VALID,918.02,VALID,0,VALID,100,VALID,-0.0679233,VALID,19.1074,VALID,171,VALID,0.0212891,
2007-11-30, 01:38:00,VALID,918.011,VALID,0,VALID,100,VALID,-0.0679233,VALID,19.1144,VALID,171,VALID,0,
2007-11-30, 01:39:00,VALID,918.003,VALID,0,VALID,100,VALID,-0.0849042,VALID,19.1211,VALID,171,VALID,0,
2007-11-30, 01:40:00,VALID,917.982,VALID,0,VALID,100,VALID,-0.0509425,VALID,19.1141,VALID,171,VALID,0,
2007-11-30, 01:41:00,VALID,917.974,VALID,0,VALID,100,VALID,-0.0509425,VALID,19.0685,VALID,154,VALID,0.0159801,
2007-11-30, 01:42:00,VALID,917.942,VALID,0,VALID,100,VALID,-0.0169808,VALID,19.0101,VALID,85,VALID,0.361328,
2007-11-30, 01:43:00,VALID,917.927,VALID,0,VALID,100,VALID,-0.0679233,VALID,18.9679,VALID,85,VALID,0.244913,
2007-11-30, 01:44:00,VALID,917.921,VALID,0,VALID,100,VALID,-0.0509425,VALID,18.9584,VALID,85,VALID,0,
2007-11-30, 01:45:00,VALID,917.917,VALID,0,VALID,100,VALID,-0.0679233,VALID,18.9814,VALID,85,VALID,0,
2007-11-30, 01:46:00,VALID,917.914,VALID,0,VALID,100,VALID,-0.0849042,VALID,19.0068,VALID,85,VALID,0,
2007-11-30, 01:47:00,VALID,917.906,VALID,0,VALID,100,VALID,-0.0509425,VALID,19.0492,VALID,85,VALID,0,
2007-11-30, 01:48:00,VALID,917.893,VALID,0,VALID,100,VALID,-0.0339617,VALID,19.0652,VALID,85,VALID,0,
2007-11-30, 01:49:00,VALID,917.879,VALID,0,VALID,100,VALID,-0.0679233,VALID,19.0847,VALID,85,VALID,0.173473,
2007-11-30, 01:50:00,VALID,917.861,VALID,0,VALID,100,VALID,-0.0679233,VALID,19.0425,VALID,85,VALID,0.423828,
2007-11-30, 01:51:00,VALID,917.832,VALID,0,VALID,100,VALID,-0.0169808,VALID,19.0231,VALID,97,VALID,0.619965,
2007-11-30, 01:52:00,VALID,917.828,VALID,0,VALID,100,VALID,-0.0339617,VALID,19.0295,VALID,104,VALID,0.512607,
2007-11-30, 01:53:00,VALID,917.812,VALID,0,VALID,100,VALID,-0.0339617,VALID,19.0201,VALID,114,VALID,0.276953,
2007-11-30, 01:54:00,VALID,917.8,VALID,0,VALID,100,VALID,-0.0509425,VALID,18.9909,VALID,130,VALID,0.482777,
2007-11-30, 01:55:00,VALID,917.795,VALID,0,VALID,100,VALID,-0.0679233,VALID,18.9744,VALID,135,VALID,0.125186,
2007-11-30, 01:56:00,VALID,917.786,VALID,0,VALID,100,VALID,-0.0679233,VALID,18.9582,VALID,142,VALID,0.253997,
2007-11-30, 01:57:00,VALID,917.771,VALID,0,VALID,100,VALID,-0.0169808,VALID,18.9545,VALID,157,VALID,0.69407,
2007-11-30, 01:58:00,VALID,917.762,VALID,0,VALID,100,VALID,-0.0509425,VALID,18.9779,VALID,156,VALID,1.02907,
2007-11-30, 01:59:00,VALID,917.751,VALID,0,VALID,100,VALID,-0.0509425,VALID,18.9841,VALID,159,VALID,0.824124,
2007-11-30, 02:00:00,VALID,917.741,VALID,0,VALID,100,VALID,-0.0339617,VALID,18.9841,VALID,157,VALID,1.15207,
2007-11-30, 02:01:00,VALID,917.727,VALID,0,VALID,100,VALID,-0.0509425,VALID,19.0004,VALID,158,VALID,0.747461,
2007-11-30, 02:02:00,VALID,917.691,VALID,0,VALID,100,VALID,-0.0509425,VALID,19.0198,VALID,150,VALID,0.862165,
2007-11-30, 02:03:00,VALID,917.67,VALID,0,VALID,100,VALID,-0.0169808,VALID,19.0231,VALID,135,VALID,0.892805,
2007-11-30, 02:04:00,VALID,917.65,VALID,0,VALID,100,VALID,-0.0509425,VALID,19.0133,VALID,128,VALID,0.582812,
2007-11-30, 02:05:00,VALID,917.616,VALID,0,VALID,100,VALID,-0.0169808,VALID,18.9973,VALID,137,VALID,1.11024,
2007-11-30, 02:06:00,VALID,917.604,VALID,0,VALID,100,VALID,-0.0339617,VALID,19.0133,VALID,132,VALID,1.1147,
2007-11-30, 02:07:00,VALID,917.576,VALID,0,VALID,100,VALID,-0.0339617,VALID,19.0166,VALID,123,VALID,0.925967,
2007-11-30, 02:08:00,VALID,917.578,VALID,0,VALID,100,VALID,-0.0169808,VALID,18.9936,VALID,122,VALID,0.823864,
2007-11-30, 02:09:00,VALID,917.546,VALID,0,VALID,100,VALID,-0.0169808,VALID,18.9939,VALID,126,VALID,1.09629,
2007-11-30, 02:10:00,VALID,917.524,VALID,0,VALID,100,VALID,0,VALID,18.9909,VALID,124,VALID,0.863782,
2007-11-30, 02:11:00,VALID,917.5,VALID,0,VALID,100,VALID,-0.0169808,VALID,18.9809,VALID,122,VALID,1.15825,
2007-11-30, 02:12:00,VALID,917.484,VALID,0,VALID,100,VALID,0,VALID,18.9774,VALID,122,VALID,1.03683,
2007-11-30, 02:13:00,VALID,917.464,VALID,0,VALID,100,VALID,-0.0169808,VALID,18.9674,VALID,125,VALID,1.28942,
2007-11-30, 02:14:00,VALID,917.459,VALID,0,VALID,100,VALID,-0.0339617,VALID,18.9776,VALID,124,VALID,1.33403,
2007-11-30, 02:15:00,VALID,917.441,VALID,0,VALID,100,VALID,-0.0169808,VALID,18.9906,VALID,127,VALID,1.35472,
2007-11-30, 02:16:00,VALID,917.445,VALID,0,VALID,100,VALID,-0.0169808,VALID,18.9973,VALID,131,VALID,1.23977,
2007-11-30, 02:17:00,VALID,917.442,VALID,0,VALID,100,VALID,-0.0679233,VALID,18.9906,VALID,128,VALID,1.21662,
2007-11-30, 02:18:00,VALID,917.422,VALID,0,VALID,100,VALID,-0.0339617,VALID,18.9936,VALID,129,VALID,1.32903,
2007-11-30, 02:19:00,VALID,917.412,VALID,0,VALID,100,VALID,-0.0169808,VALID,19.0068,VALID,128,VALID,1.16369,
2007-11-30, 02:20:00,VALID,917.396,VALID,0,VALID,100,VALID,-0.0169808,VALID,18.9971,VALID,125,VALID,1.29967,
2007-11-30, 02:21:00,VALID,917.37,VALID,0,VALID,100,VALID,-0.0169808,VALID,19.0068,VALID,134,VALID,1.45703,
2007-11-30, 02:22:00,VALID,917.364,VALID,0,VALID,100,VALID,-0.0509425,VALID,18.9906,VALID,131,VALID,1.16704,
2007-11-30, 02:23:00,VALID,917.347,VALID,0,VALID,100,VALID,0,VALID,18.9712,VALID,131,VALID,1.23637,
2007-11-30, 02:24:00,VALID,917.33,VALID,0,VALID,100,VALID,-0.0849042,VALID,18.9582,VALID,129,VALID,1.33166,
2007-11-30, 02:25:00,VALID,917.318,VALID,0,VALID,100,VALID,-0.0509425,VALID,18.9614,VALID,124,VALID,1.22677,
2007-11-30, 02:26:00,VALID,917.316,VALID,0,VALID,100,VALID,-0.0169808,VALID,18.9417,VALID,118,VALID,0.992006,
2007-11-30, 02:27:00,VALID,917.313,VALID,0,VALID,100,VALID,0.0169808,VALID,18.9412,VALID,114,VALID,1.02307,
2007-11-30, 02:28:00,VALID,917.313,VALID,0,VALID,100,VALID,0.0509425,VALID,18.9176,VALID,116,VALID,0.806944,
2007-11-30, 02:29:00,VALID,917.303,VALID,0,VALID,100,VALID,0,VALID,18.9051,VALID,118,VALID,0.851376,
2007-11-30, 02:30:00,VALID,917.302,VALID,0,VALID,100,VALID,0.0339617,VALID,18.8984,VALID,113,VALID,0.91582,
2007-11-30, 02:31:00,VALID,917.308,VALID,0,VALID,100,VALID,0.0679233,VALID,18.9021,VALID,113,VALID,1.13223,
2007-11-30, 02:32:00,VALID,917.3,VALID,0,VALID,100,VALID,0.0509425,VALID,18.8859,VALID,110,VALID,1.01618,
2007-11-30, 02:33:00,VALID,917.285,VALID,0,VALID,100,VALID,0.0169808,VALID,18.8659,VALID,108,VALID,0.852121,
2007-11-30, 02:34:00,VALID,917.285,VALID,0,VALID,100,VALID,0.0339617,VALID,18.8886,VALID,98,VALID,1.04483,
2007-11-30, 02:35:00,VALID,917.276,VALID,0,VALID,100,VALID,0.0169808,VALID,18.8824,VALID,97,VALID,0.854403,
2007-11-30, 02:36:00,VALID,917.29,VALID,0,VALID,100,VALID,0.0339617,VALID,18.8856,VALID,105,VALID,0.912016,
2007-11-30, 02:37:00,VALID,917.273,VALID,0,VALID,100,VALID,-0.0169808,VALID,18.8729,VALID,97,VALID,0.847565,
2007-11-30, 02:38:00,VALID,917.267,VALID,0,VALID,100,VALID,0.0339617,VALID,18.8629,VALID,101,VALID,0.695313,
2007-11-30, 02:39:00,VALID,917.265,VALID,0,VALID,100,VALID,0.0339617,VALID,18.8472,VALID,102,VALID,0.105859,
2007-11-30, 02:40:00,VALID,917.263,VALID,0,VALID,100,VALID,0.0339617,VALID,18.8238,VALID,102,VALID,0.351749,
2007-11-30, 02:41:00,VALID,917.252,VALID,0,VALID,100,VALID,0.0509425,VALID,18.8076,VALID,109,VALID,0.491629,
2007-11-30, 02:42:00,VALID,917.243,VALID,0,VALID,100,VALID,-0.101885,VALID,18.7863,VALID,109,VALID,0.814596,
2007-11-30, 02:43:00,VALID,917.236,VALID,0,VALID,100,VALID,-0.101885,VALID,18.7738,VALID,95,VALID,0.626272,
2007-11-30, 02:44:00,VALID,917.211,VALID,0,VALID,100,VALID,-0.0339617,VALID,18.7613,VALID,89,VALID,0.107955,
2007-11-30, 02:45:00,VALID,917.211,VALID,0,VALID,100,VALID,-0.0509425,VALID,18.7179,VALID,101,VALID,0.451349,
2007-11-30, 02:46:00,VALID,917.201,VALID,0,VALID,100,VALID,-0.101885,VALID,18.7084,VALID,97,VALID,0.592035,
2007-11-30, 02:47:00,VALID,917.202,VALID,0,VALID,100,VALID,-0.0339617,VALID,18.6925,VALID,81,VALID,0.356997,
2007-11-30, 02:48:00,VALID,917.186,VALID,0,VALID,100,VALID,-0.0509425,VALID,18.676,VALID,99,VALID,0.0910247,
2007-11-30, 02:49:00,VALID,917.184,VALID,0,VALID,100,VALID,-0.0679233,VALID,18.6568,VALID,112,VALID,0.527616,
2007-11-30, 02:50:00,VALID,917.182,VALID,0,VALID,100,VALID,-0.0849042,VALID,18.6503,VALID,118,VALID,0.501635,
2007-11-30, 02:51:00,VALID,917.175,VALID,0,VALID,100,VALID,-0.0509425,VALID,18.6338,VALID,108,VALID,0.518043,
2007-11-30, 02:52:00,VALID,917.179,VALID,0,VALID,100,VALID,-0.0849042,VALID,18.6373,VALID,113,VALID,0.887957,
2007-11-30, 02:53:00,VALID,917.172,VALID,0,VALID,100,VALID,-0.0849042,VALID,18.6508,VALID,111,VALID,0.420673,
2007-11-30, 02:54:00,VALID,917.168,VALID,0,VALID,100,VALID,-0.0849042,VALID,18.6149,VALID,112,VALID,0.108203,
2007-11-30, 02:55:00,VALID,917.155,VALID,0,VALID,100,VALID,-0.101885,VALID,18.6341,VALID,80,VALID,0.663154,
2007-11-30, 02:56:00,VALID,917.159,VALID,0,VALID,100,VALID,-0.0509425,VALID,18.6403,VALID,100,VALID,0.502604,
2007-11-30, 02:57:00,VALID,917.156,VALID,0,VALID,100,VALID,-0.0509425,VALID,18.6436,VALID,98,VALID,0.491629,
2007-11-30, 02:58:00,VALID,917.156,VALID,0,VALID,100,VALID,-0.0849042,VALID,18.66,VALID,128,VALID,0.813953,
2007-11-30, 02:59:00,VALID,917.157,VALID,0,VALID,100,VALID,-0.0679233,VALID,18.6857,VALID,125,VALID,0.957031,
2007-11-30, 03:00:00,VALID,917.127,VALID,0,VALID,100,VALID,-0.0509425,VALID,18.7089,VALID,138,VALID,0.973214,
2007-11-30, 03:01:00,VALID,917.135,VALID,0,VALID,100,VALID,-0.101885,VALID,18.7411,VALID,150,VALID,0.744792,
2007-11-30, 03:02:00,VALID,917.129,VALID,0,VALID,100,VALID,-0.0849042,VALID,18.7314,VALID,135,VALID,0.659307,
2007-11-30, 03:03:00,VALID,917.132,VALID,0,VALID,100,VALID,-0.0849042,VALID,18.7191,VALID,156,VALID,0.760231,
2007-11-30, 03:04:00,VALID,917.117,VALID,0,VALID,100,VALID,-0.101885,VALID,18.6959,VALID,146,VALID,0.811384,
2007-11-30, 03:05:00,VALID,917.111,VALID,0,VALID,100,VALID,-0.0849042,VALID,18.7126,VALID,140,VALID,1.09189,
2007-11-30, 03:06:00,VALID,917.109,VALID,0,VALID,100,VALID,-0.0679233,VALID,18.6989,VALID,135,VALID,0.644245,
2007-11-30, 03:07:00,VALID,917.107,VALID,0,VALID,100,VALID,-0.0849042,VALID,18.6832,VALID,141,VALID,0.677641,
2007-11-30, 03:08:00,VALID,917.107,VALID,0,VALID,100,VALID,-0.0509425,VALID,18.6535,VALID,137,VALID,0.865189,
2007-11-30, 03:09:00,VALID,917.109,VALID,0,VALID,100,VALID,-0.0849042,VALID,18.657,VALID,139,VALID,1.05655,
2007-11-30, 03:10:00,VALID,917.092,VALID,0,VALID,100,VALID,-0.101885,VALID,18.66,VALID,141,VALID,1.22257,
2007-11-30, 03:11:00,VALID,917.084,VALID,0,VALID,100,VALID,-0.101885,VALID,18.6568,VALID,152,VALID,1.13622,
2007-11-30, 03:12:00,VALID,917.061,VALID,0,VALID,100,VALID,0,VALID,18.6848,VALID,135,VALID,1.37824,
2007-11-30, 03:13:00,VALID,917.05,VALID,0,VALID,100,VALID,0.0339617,VALID,18.7008,VALID,132,VALID,1.39499,
2007-11-30, 03:14:00,VALID,917.035,VALID,0,VALID,100,VALID,0.0169808,VALID,18.688,VALID,122,VALID,1.43841,
2007-11-30, 03:15:00,VALID,917.026,VALID,0,VALID,100,VALID,0.0169808,VALID,18.6778,VALID,130,VALID,1.44727,
2007-11-30, 03:16:00,VALID,917.014,VALID,0,VALID,100,VALID,0.0169808,VALID,18.7075,VALID,130,VALID,1.48896,
2007-11-30, 03:17:00,VALID,917.001,VALID,0,VALID,100,VALID,0.0169808,VALID,18.72,VALID,142,VALID,1.3872,
2007-11-30, 03:18:00,VALID,917.001,VALID,0,VALID,100,VALID,0.0339617,VALID,18.7272,VALID,127,VALID,1.08648,
2007-11-30, 03:19:00,VALID,916.967,VALID,0,VALID,100,VALID,0.0339617,VALID,18.7464,VALID,131,VALID,1.43378,
2007-11-30, 03:20:00,VALID,916.968,VALID,0,VALID,100,VALID,0.0169808,VALID,18.7624,VALID,136,VALID,1.60374,
2007-11-30, 03:21:00,VALID,916.967,VALID,0,VALID,100,VALID,0.0339617,VALID,18.7818,VALID,124,VALID,1.27557,
2007-11-30, 03:22:00,VALID,916.945,VALID,0,VALID,100,VALID,0.0339617,VALID,18.8048,VALID,129,VALID,1.39546,
2007-11-30, 03:23:00,VALID,916.933,VALID,0,VALID,100,VALID,0.0169808,VALID,18.8178,VALID,127,VALID,1.41016,
2007-11-30, 03:24:00,VALID,916.92,VALID,0,VALID,100,VALID,0.0339617,VALID,18.8435,VALID,118,VALID,1.33984,
2007-11-30, 03:25:00,VALID,916.914,VALID,0,VALID,100,VALID,0,VALID,18.8694,VALID,120,VALID,0.996761,
2007-11-30, 03:26:00,VALID,916.89,VALID,0,VALID,100,VALID,0.0509425,VALID,18.8432,VALID,123,VALID,1.11028,
2007-11-30, 03:27:00,VALID,916.878,VALID,0,VALID,100,VALID,-0.0679233,VALID,18.8511,VALID,130,VALID,1.33705,
2007-11-30, 03:28:00,VALID,916.861,VALID,0,VALID,100,VALID,-0.0169808,VALID,18.8606,VALID,135,VALID,1.50724,
2007-11-30, 03:29:00,VALID,916.841,VALID,0,VALID,100,VALID,-0.0679233,VALID,18.8609,VALID,119,VALID,1.21016,
2007-11-30, 03:30:00,VALID,916.827,VALID,0,VALID,100,VALID,-0.0679233,VALID,18.8806,VALID,123,VALID,1.35993,
2007-11-30, 03:31:00,VALID,916.822,VALID,0,VALID,100,VALID,-0.0679233,VALID,18.8836,VALID,125,VALID,0.846768,
2007-11-30, 03:32:00,VALID,916.814,VALID,0,VALID,100,VALID,-0.0679233,VALID,18.8574,VALID,144,VALID,1.11951,
2007-11-30, 03:33:00,VALID,916.81,VALID,0,VALID,100,VALID,-0.0679233,VALID,18.8474,VALID,131,VALID,1.11384,
2007-11-30, 03:34:00,VALID,916.805,VALID,0,VALID,100,VALID,-0.0679233,VALID,18.8217,VALID,126,VALID,0.777616,
2007-11-30, 03:35:00,VALID,916.804,VALID,0,VALID,100,VALID,-0.0509425,VALID,18.7958,VALID,136,VALID,1.02507,
2007-11-30, 03:36:00,VALID,916.817,VALID,0,VALID,100,VALID,-0.0169808,VALID,18.7955,VALID,138,VALID,0.885742,
2007-11-30, 03:37:00,VALID,916.805,VALID,0,VALID,100,VALID,-0.0169808,VALID,18.786,VALID,134,VALID,0.783381,
2007-11-30, 03:38:00,VALID,916.829,VALID,0,VALID,100,VALID,-0.0169808,VALID,18.7826,VALID,129,VALID,1.30669,
2007-11-30, 03:39:00,VALID,916.841,VALID,0,VALID,100,VALID,-0.0169808,VALID,18.7958,VALID,125,VALID,1.00107,